Weather History for Burnet, TX

Change the Weather History Date:

Monday, April 14, 2014

  Actual Average Record
Temperature  
Mean Temperature 58 °F -  
Max Temperature 72 °F 74 °F 90 °F (2013)
Min Temperature 45 °F 53 °F 37 °F (2004)
Degree Days  
Heating Degree Days 6    
Growing Degree Days 8 (Base 50)    
Moisture  
Dew Point 43 °F    
Average Humidity 65    
Maximum Humidity 90    
Minimum Humidity 37    
Precipitation  
Precipitation 0.07 in - - ()
Sea Level Pressure  
Sea Level Pressure 29.96 in    
Wind  
Wind Speed 13 mph (North)    
Max Wind Speed 24 mph    
Max Gust Speed 34 mph    
Visibility 9 miles    
Events Rain , Thunderstorm    
Averages and records for this station are not official NWS values.
T = Trace of Precipitation, MM = Missing Value Source: NWS Daily Summary

Daily Weather History Graph

Daily Weather History Graph

Search for Another Location

Airport:

Trip Planner

Search our weather history database for the weather conditions in past years. The results will help you decide how hot, cold, wet, or windy it might be!

Date:

Astronomy

Apr. 14, 2014 Rise Set
Actual Time 7:06 AM CDT 8:00 PM CDT
Civil Twilight 6:41 AM CDT 8:25 PM CDT
Nautical Twilight 6:12 AM CDT 8:54 PM CDT
Astronomical Twilight 5:42 AM CDT 9:24 PM CDT
Moon 7:41 PM CDT (4/14) 6:36 AM CDT (4/14)
Length of Visible Light 13h 43m
Length of Day
12h 53m
Full, 100% of the Moon is Illuminated
Apr 14
Full
Apr 15
Full
Apr 22
Last Quarter
Apr 29
New
May 6
First Quarter

Hourly Weather History & Observations

Time (CDT) Temp. Windchill Dew Point Humidity Pressure Visibility Wind Dir Wind Speed Gust Speed Precip Events Conditions
12:53 AM 72.0 °F - 66.9 °F 84% 29.69 in 8.0 mi South 9.2 mph 18.4 mph N/A   Overcast
2:53 AM 72.0 °F - 66.9 °F 84% 29.68 in 7.0 mi South 10.4 mph - N/A   Overcast
4:15 AM 72.0 °F - 66.9 °F 84% 29.72 in 6.0 mi South 9.2 mph - N/A   Haze
4:43 AM 72.0 °F - 66.9 °F 84% 29.76 in 6.0 mi WNW 4.6 mph - N/A   Haze
4:53 AM 72.0 °F - 66.9 °F 84% 29.71 in 6.0 mi NNW 3.5 mph - N/A   Haze
5:11 AM 59.0 °F - 55.0 °F 87% 29.79 in 2.5 mi North 20.7 mph 27.6 mph 0.06 in Rain Heavy Rain
5:23 AM 55.9 °F - 53.1 °F 90% 29.80 in 6.0 mi North 19.6 mph 29.9 mph 0.07 in Rain Light Rain
5:33 AM 55.0 °F - 50.0 °F 83% 29.80 in 10.0 mi North 19.6 mph 32.2 mph 0.07 in Rain Light Rain
5:38 AM 54.0 °F - 50.0 °F 86% 29.80 in 10.0 mi North 17.3 mph 28.8 mph 0.07 in Thunderstorm Mostly Cloudy
5:51 AM 53.6 °F - 48.2 °F 82% 29.82 in 10.0 mi North 12.7 mph 29.9 mph 0.07 in Thunderstorm Mostly Cloudy
5:53 AM 53.1 °F - 48.9 °F 86% 29.79 in 10.0 mi North 13.8 mph 25.3 mph 0.07 in Thunderstorm Mostly Cloudy
6:08 AM 53.1 °F - 48.9 °F 86% 29.84 in 10.0 mi North 13.8 mph 23.0 mph N/A   Overcast
7:53 AM 48.0 °F - 37.9 °F 68% 29.94 in 10.0 mi North 15.0 mph 25.3 mph N/A   Overcast
8:53 AM 46.0 °F 38.8 °F 35.1 °F 66% 29.97 in 10.0 mi North 18.4 mph 31.1 mph N/A   Overcast
9:53 AM 45.0 °F 39.7 °F 37.9 °F 76% 30.01 in 10.0 mi NNW 10.4 mph 31.1 mph 0.00 in Rain Light Rain
10:33 AM 46.0 °F 38.5 °F 36.0 °F 68% 30.03 in 10.0 mi NNW 19.6 mph 29.9 mph 0.00 in   Overcast
10:53 AM 46.9 °F - 36.0 °F 66% 30.03 in 10.0 mi NNW 15.0 mph 31.1 mph 0.00 in   Overcast
11:42 AM 48.9 °F - 35.1 °F 59% 30.10 in 10.0 mi NNW 17.3 mph 31.1 mph 0.00 in   Overcast
11:53 AM 50.0 °F - 35.1 °F 57% 30.08 in 10.0 mi NNW 23.0 mph 29.9 mph 0.00 in   Mostly Cloudy
12:10 PM 53.1 °F - 36.0 °F 52% 30.09 in 10.0 mi NNW 17.3 mph 31.1 mph N/A   Mostly Cloudy
1:53 PM 57.0 °F - 34.0 °F 42% 30.06 in 10.0 mi North 21.9 mph 34.5 mph N/A   Clear
2:53 PM 57.0 °F - 34.0 °F 42% 30.06 in 10.0 mi North 18.4 mph 28.8 mph N/A   Clear
4:53 PM 57.9 °F - 33.1 °F 39% 30.06 in 10.0 mi North 24.2 mph 31.1 mph N/A   Clear
5:53 PM 57.0 °F - 30.9 °F 37% 30.09 in 10.0 mi North 19.6 mph 29.9 mph N/A   Clear
6:53 PM 55.9 °F - 30.9 °F 39% 30.11 in 10.0 mi North 17.3 mph 25.3 mph N/A   Clear
7:53 PM 53.1 °F - 30.0 °F 41% 30.14 in 10.0 mi North 11.5 mph - N/A   Clear
8:53 PM 51.1 °F - 30.0 °F 44% 30.19 in 10.0 mi North 8.1 mph - N/A   Clear
9:53 PM 48.9 °F - 28.9 °F 46% 30.23 in 10.0 mi North 5.8 mph - N/A   Clear
10:53 PM 46.9 °F - 28.0 °F 48% 30.25 in 10.0 mi North 6.9 mph - N/A   Clear
11:53 PM 48.0 °F - 24.1 °F 39% 30.27 in 10.0 mi North 10.4 mph - N/A   Clear